When you browse on this site, cookies collect data to enhance your experience and personalize the content and advertising you see.
Visit our Privacy Policy to learn more. By continuing to use the site, you agree to this use of cookies and data.

Hourly Weather Biskira

Today, 10 July, Friday

Time Temperature Precipitation Wind Pressure Humidity
00:00 +35°C° 0 mm 2 mps 751 mmHg 18%
01:00 +34°C° 0 mm 3 mps 751 mmHg 24%
02:00 +33°C° 0 mm 5 mps 751 mmHg 30%
03:00 +30°C° 0 mm 6 mps 750 mmHg 36%
04:00 +30°C° 0 mm 6 mps 751 mmHg 39%
05:00 +30°C° 0 mm 5 mps 751 mmHg 41%
06:00 +30°C° 0 mm 5 mps 751 mmHg 43%
07:00 +33°C° 0 mm 5 mps 751 mmHg 39%
08:00 +34°C° 0 mm 5 mps 751 mmHg 35%
09:00 +35°C° 0 mm 5 mps 751 mmHg 31%
10:00 +37°C° 0 mm 4 mps 751 mmHg 27%
11:00 +38°C° 0 mm 4 mps 751 mmHg 24%
12:00 +39°C° 0 mm 3 mps 751 mmHg 20%
13:00 +40°C° 0 mm 3 mps 750 mmHg 19%
14:00 +41°C° 0 mm 2 mps 749 mmHg 17%
15:00 +42°C° 0 mm 2 mps 749 mmHg 16%
16:00 +42°C° 0 mm 2 mps 749 mmHg 15%
17:00 +42°C° 0 mm 2 mps 749 mmHg 15%
18:00 +42°C° 0 mm 2 mps 749 mmHg 15%
19:00 +42°C° 0 mm 3 mps 750 mmHg 16%
20:00 +41°C° 0 mm 4 mps 751 mmHg 18%
21:00 +39°C° 0 mm 5 mps 751 mmHg 19%
22:00 +39°C° 0 mm 5 mps 751 mmHg 20%
23:00 +37°C° 0 mm 4 mps 751 mmHg 20%

Tomorrow, 11 July, Saturday

Time Temperature Precipitation Wind Pressure Humidity
00:00 +37°C° 0 mm 4 mps 751 mmHg 21%
01:00 +35°C° 0 mm 5 mps 751 mmHg 29%
02:00 +33°C° 0 mm 6 mps 751 mmHg 37%
03:00 +32°C° 0 mm 6 mps 750 mmHg 45%
04:00 +32°C° 0 mm 6 mps 751 mmHg 45%
05:00 +30°C° 0 mm 5 mps 751 mmHg 46%
06:00 +30°C° 0 mm 4 mps 751 mmHg 46%
07:00 +33°C° 0 mm 4 mps 752 mmHg 41%
08:00 +35°C° 0 mm 4 mps 752 mmHg 35%
09:00 +36°C° 0 mm 4 mps 752 mmHg 30%
10:00 +38°C° 0 mm 4 mps 752 mmHg 27%
11:00 +39°C° 0 mm 3 mps 751 mmHg 24%
12:00 +40°C° 0 mm 3 mps 751 mmHg 21%
13:00 +41°C° 0 mm 2 mps 751 mmHg 19%
14:00 +42°C° 0 mm 2 mps 750 mmHg 18%
15:00 +43°C° 0 mm 2 mps 750 mmHg 16%
16:00 +44°C° 0 mm 3 mps 749 mmHg 16%
17:00 +44°C° 0 mm 3 mps 749 mmHg 15%
18:00 +44°C° 0 mm 4 mps 749 mmHg 15%
19:00 +42°C° 0 mm 4 mps 750 mmHg 16%
20:00 +41°C° 0 mm 4 mps 750 mmHg 18%
21:00 +39°C° 0 mm 3 mps 750 mmHg 19%
22:00 +38°C° 0 mm 3 mps 750 mmHg 20%
23:00 +37°C° 0 mm 3 mps 750 mmHg 21%

Day after tomorrow, 12 July, Sunday

Time Temperature Precipitation Wind Pressure Humidity
00:00 +37°C° 0 mm 2 mps 750 mmHg 22%
01:00 +36°C° 0 mm 3 mps 750 mmHg 25%
02:00 +35°C° 0 mm 4 mps 750 mmHg 27%
03:00 +34°C° 0 mm 5 mps 750 mmHg 30%
04:00 +34°C° 0 mm 6 mps 751 mmHg 32%
05:00 +34°C° 0 mm 6 mps 751 mmHg 34%
06:00 +34°C° 0 mm 6 mps 751 mmHg 35%
07:00 +35°C° 0 mm 6 mps 751 mmHg 32%
08:00 +37°C° 0 mm 5 mps 751 mmHg 28%
09:00 +39°C° 0 mm 5 mps 751 mmHg 25%
10:00 +40°C° 0 mm 4 mps 751 mmHg 22%
11:00 +42°C° 0 mm 3 mps 751 mmHg 19%
12:00 +42°C° 0 mm 2 mps 751 mmHg 17%
13:00 +43°C° 0 mm 2 mps 750 mmHg 15%
14:00 +45°C° 0 mm 2 mps 750 mmHg 14%
15:00 +46°C° 0 mm 2 mps 749 mmHg 12%
16:00 +46°C° 0 mm 3 mps 749 mmHg 11%
17:00 +46°C° 0 mm 3 mps 749 mmHg 11%
18:00 +46°C° 0 mm 3 mps 750 mmHg 10%
19:00 +44°C° 0 mm 4 mps 750 mmHg 14%
20:00 +42°C° 0 mm 4 mps 751 mmHg 18%
21:00 +40°C° 0 mm 4 mps 751 mmHg 23%
22:00 +38°C° 0 mm 4 mps 751 mmHg 24%
23:00 +37°C° 0 mm 3 mps 751 mmHg 25%

13 July, Monday

Time Temperature Precipitation Wind Pressure Humidity
00:00 +37°C° 0 mm 3 mps 751 mmHg 26%
01:00 +36°C° 0 mm 3 mps 751 mmHg 28%
02:00 +35°C° 0 mm 2 mps 751 mmHg 31%
03:00 +34°C° 0 mm 2 mps 751 mmHg 33%
04:00 +34°C° 0 mm 2 mps 751 mmHg 33%
05:00 +34°C° 0 mm 2 mps 751 mmHg 32%
06:00 +34°C° 0 mm 2 mps 751 mmHg 31%
07:00 +36°C° 0 mm 2 mps 751 mmHg 28%
08:00 +37°C° 0 mm 3 mps 751 mmHg 24%
09:00 +39°C° 0 mm 3 mps 752 mmHg 21%
10:00 +41°C° 0 mm 4 mps 751 mmHg 19%
11:00 +42°C° 0 mm 4 mps 751 mmHg 17%
12:00 +43°C° 0 mm 4 mps 750 mmHg 15%
13:00 +44°C° 0 mm 4 mps 750 mmHg 14%
14:00 +45°C° 0 mm 4 mps 749 mmHg 13%
15:00 +45°C° 0 mm 4 mps 749 mmHg 13%
16:00 +44°C° 0 mm 6 mps 749 mmHg 16%
17:00 +43°C° 0 mm 8 mps 749 mmHg 19%
18:00 +40°C° 0 mm 10 mps 750 mmHg 22%
19:00 +39°C° 0.1 mm 8 mps 750 mmHg 22%
20:00 +38°C° 0.1 mm 6 mps 750 mmHg 23%
21:00 +36°C° 0.1 mm 3 mps 750 mmHg 23%
22:00 +36°C° 0 mm 3 mps 750 mmHg 24%
23:00 +35°C° 0 mm 2 mps 750 mmHg 25%

14 July, Tuesday

Time Temperature Precipitation Wind Pressure Humidity
00:00 +35°C° 0 mm 2 mps 749 mmHg 25%
01:00 +34°C° 0 mm 2 mps 749 mmHg 27%
02:00 +32°C° 0 mm 2 mps 749 mmHg 28%
03:00 +32°C° 0 mm 2 mps 749 mmHg 30%
04:00 +32°C° 0 mm 2 mps 749 mmHg 29%
05:00 +33°C° 0 mm 3 mps 749 mmHg 29%
06:00 +34°C° 0 mm 3 mps 750 mmHg 28%
07:00 +35°C° 0 mm 4 mps 750 mmHg 25%
08:00 +37°C° 0 mm 5 mps 750 mmHg 23%
09:00 +39°C° 0 mm 5 mps 750 mmHg 20%
10:00 +40°C° 0 mm 5 mps 749 mmHg 19%
11:00 +41°C° 0 mm 4 mps 749 mmHg 18%
12:00 +42°C° 0 mm 4 mps 749 mmHg 16%
13:00 +43°C° 0 mm 3 mps 748 mmHg 15%
14:00 +43°C° 0 mm 3 mps 748 mmHg 15%
15:00 +43°C° 0 mm 2 mps 747 mmHg 14%
16:00 +42°C° 0 mm 2 mps 747 mmHg 13%
17:00 +42°C° 0 mm 2 mps 747 mmHg 13%
18:00 +42°C° 0 mm 2 mps 747 mmHg 13%
19:00 +40°C° 0 mm 2 mps 748 mmHg 16%
20:00 +39°C° 0 mm 3 mps 748 mmHg 19%
21:00 +37°C° 0 mm 3 mps 749 mmHg 23%
22:00 +36°C° 0 mm 3 mps 749 mmHg 26%
23:00 +35°C° 0 mm 4 mps 749 mmHg 29%

15 July, Wednesday

Time Temperature Precipitation Wind Pressure Humidity
00:00 +35°C° 0 mm 4 mps 750 mmHg 31%
01:00 +34°C° 0 mm 3 mps 750 mmHg 33%
02:00 +33°C° 0 mm 3 mps 750 mmHg 34%
03:00 +32°C° 0 mm 2 mps 750 mmHg 35%
04:00 +32°C° 0 mm 2 mps 750 mmHg 34%
05:00 +32°C° 0 mm 2 mps 750 mmHg 33%
06:00 +34°C° 0 mm 2 mps 750 mmHg 32%
07:00 +35°C° 0 mm 3 mps 751 mmHg 28%
08:00 +37°C° 0 mm 3 mps 751 mmHg 25%
09:00 +38°C° 0 mm 3 mps 751 mmHg 22%
10:00 +39°C° 0 mm 3 mps 751 mmHg 20%
11:00 +40°C° 0 mm 3 mps 750 mmHg 18%
12:00 +43°C° 0 mm 3 mps 750 mmHg 16%
13:00 +42°C° 0 mm 2 mps 750 mmHg 15%
14:00 +43°C° 0 mm 2 mps 750 mmHg 14%
15:00 +44°C° 0 mm 1 mps 749 mmHg 12%
16:00 +43°C° 0 mm 1 mps 749 mmHg 12%
17:00 +43°C° 0 mm 1 mps 749 mmHg 13%
18:00 +43°C° 0 mm 2 mps 749 mmHg 13%
19:00 +42°C° 0 mm 1 mps 750 mmHg 14%
20:00 +40°C° 0 mm 1 mps 751 mmHg 16%
21:00 +35°C° 0 mm 0 mps 751 mmHg 18%
22:00 +38°C° 0 mm 2 mps 751 mmHg 21%
23:00 +37°C° 0 mm 3 mps 751 mmHg 24%
Show more